"Pseudo-MPEC" for P110LID

Created 2020 May 25 22:07:18 UT using Find_Orb

Click here for an explanation of pseudo-MPECs

 
 Astrometry: 
     P110LID  C2020 05 13*iIyTKlKVYXAstrometryfl=Zw-;'CQmZGMlEU')/KSbg-43YDmkF51
     P110LID  C2020 05 2119.kjo`r9l?s9l?9!GB1Lus9]a',Na=gobWI)W;I+.;JG=KD(w?UF51
     P110LID  C2020 05 21kV=rrIF3@g\(D!+(XQccFh0=9.ykredacted;NclickU\*L.WOTDF51
     P110LID  C2020 05 21ou'Qs\7!:7,XSehereJ9s$^!Yt`+(qZ6o)1vZ+XK,Mcm_=_\JR0NF51
     P110LID  C2020 05 217ea1%Fnv*lcBx!UIa(fTA*T@YXPaI#5uI)r*gm]:E^ooQ[.r?=R`F51
     P110LID  C2020 05 21.93906 16 27 52.11 -08 35 24.1    ~5P6b 22.2 VVNEOCP033
     P110LID  C2020 05 21.94132 16 27 51.74 -08 35 40.8    ~5P6b 22.1 VVNEOCP033
     P110LID  C2020 05 21.94358 16 27 51.31 -08 35 58.5    ~5P6b 21.9 VVNEOCP033
     P110LID ^C2020 05 22.33845216 26 51.474-09 27 17.74   ~5P77 20.81GVNEOCP568
     P110LID ^C2020 05 22.33940016 26 51.311-09 27 25.19   ~5P77 21.11GVNEOCP568
     P110LID  C2020 05 24vej74`:#\`.forNLIefo$6d$gyf:s)l3%W#qFeIT]db_lh/W.$5DF52
     P110LID  C2020 05 24BmfuZncr'CP_:vWYy1=cs/;egIiHep4a*:/mf76P*l-Fr[cE7s`#F52
     P110LID  C2020 05 24:/Fp1ffEMp96'explanationTvW9CWi6lR[)%A`?+a6MVT'UjE[rF52

Station data:
(033) Karl Schwarzschild Observatory, Tautenburg  (N50.980140 E11.711240)
   Germany. 1.3-m Schmidt.
(568) Mauna Kea  (N19.826116 W155.472200)  US/Hawaii.
(F51) Pan-STARRS 1, Haleakala  (N20.707235 W156.255910)  US/Hawaii.
   Observers N. Primak, A. Schultz, S. Watters, J. Thiel, T. Goggia. Measurer
   PS1 Science Consortium. 1.8-m Ritchey-Chrétien + CCD.
(F52) Pan-STARRS 2, Haleakala  (N20.707384 W156.255910)  US/Hawaii. 1.8-m
   Ritchey-Chrétien + CCD.

Orbital elements:  P110LID
   Perihelion 2020 Jul 10.698168 +/- 0.178 TT = 16:45:21 (JD 2459041.198168)
Epoch 2020 May 24.0 TT = JDT 2458993.5   Earth MOID: 0.1336   AutoNEOCP
M 336.83105785 +/- 0.33             (J2000 ecliptic)
n   0.48574070 +/- 0.00526          Peri.  223.01366 +/- 0.15
a   1.60275219 +/- 0.0116           Node    65.73607 +/- 0.0008
e   0.3244747 +/- 0.00439           Incl.   25.14822 +/- 0.18
P   2.03/741.12d           H 24.3   G  0.15   U  9.2  
q 1.08269963 +/- 0.000779    Q 2.12280475 +/- 0.0222
From 13 observations 2020 May 13-24; mean residual 0".68
Residuals in arcseconds: 
200513 F51  .26+  .11-    200521 033  .80-  1.7-    200524 F52  .08+  .03+    
200521 F51  .43+  1.1+    200521 033  .70-  .82-    200524 F52  .69+  .18+    
200521 F51  .26+  .56+    200521 033  1.5-  .98-    200524 F52  .24+  .31-    
200521 F51  .29+  .34+    200522 568  .15+  .44+    
200521 F51  .43+  .86+    200522 568  .19+  .56+    

Ephemerides (geocentric):
Date (UTC) HH   RA              Dec         delta   r     elong  mag " sig PA
---- -- -- --  -------------   -----------  ------ ------ -----  --- ---- ---
2020 05 25 22  16 15 51.022   -18 16 40.53  .14941 1.1623 177.0 20.8 .938 151
2020 05 25 23  16 15 42.164   -18 23 29.00  .14926 1.1622 177.1 20.8 .958 152
2020 05 26 00  16 15 33.276   -18 30 18.30  .14910 1.1620 177.3 20.8 .978 152
2020 05 26 01  16 15 24.357   -18 37 08.45  .14895 1.1619 177.4 20.8 1.00 153
2020 05 26 02  16 15 15.408   -18 43 59.43  .14879 1.1618 177.5 20.8 1.02 154
2020 05 26 03  16 15 06.428   -18 50 51.24  .14864 1.1616 177.6 20.8 1.04 154
2020 05 26 04  16 14 57.418   -18 57 43.89  .14849 1.1615 177.7 20.8 1.06 155
2020 05 26 05  16 14 48.376   -19 04 37.37  .14833 1.1614 177.9 20.8 1.09 155
2020 05 26 06  16 14 39.303   -19 11 31.67  .14818 1.1612 178.0 20.7 1.11 156
2020 05 26 07  16 14 30.200   -19 18 26.80  .14803 1.1611 178.1 20.7 1.13 156
2020 05 26 08  16 14 21.065   -19 25 22.75  .14788 1.1610 178.2 20.7 1.16 157
2020 05 26 09  16 14 11.898   -19 32 19.52  .14773 1.1608 178.3 20.7 1.18 158
2020 05 26 10  16 14 02.700   -19 39 17.10  .14759 1.1607 178.5 20.7 1.21 158
2020 05 26 11  16 13 53.471   -19 46 15.50  .14744 1.1606 178.6 20.7 1.23 159
2020 05 26 12  16 13 44.209   -19 53 14.71  .14729 1.1604 178.7 20.7 1.26 159
2020 05 26 13  16 13 34.916   -20 00 14.73  .14715 1.1603 178.8 20.7 1.29 160
2020 05 26 14  16 13 25.591   -20 07 15.56  .14700 1.1602 178.9 20.7 1.31 160
2020 05 26 15  16 13 16.234   -20 14 17.18  .14686 1.1600 179.0 20.6 1.34 161
2020 05 26 16  16 13 06.845   -20 21 19.61  .14671 1.1599 179.0 20.6 1.37 161
2020 05 26 17  16 12 57.423   -20 28 22.83  .14657 1.1598 179.1 20.6 1.40 162
2020 05 26 18  16 12 47.969   -20 35 26.84  .14643 1.1596 179.2 20.6 1.43 162
2020 05 26 19  16 12 38.482   -20 42 31.65  .14629 1.1595 179.2 20.6 1.46 163
2020 05 26 20  16 12 28.963   -20 49 37.24  .14615 1.1594 179.2 20.6 1.49 163
2020 05 26 21  16 12 19.410   -20 56 43.62  .14601 1.1592 179.2 20.6 1.52 164
2020 05 26 22  16 12 09.825   -21 03 50.77  .14587 1.1591 179.1 20.6 1.55 164
2020 05 26 23  16 12 00.207   -21 10 58.70  .14573 1.1590 179.1 20.6 1.58 165
2020 05 27 00  16 11 50.556   -21 18 07.41  .14560 1.1588 179.0 20.6 1.61 165
2020 05 27 01  16 11 40.871   -21 25 16.89  .14546 1.1587 178.9 20.6 1.65 166
2020 05 27 02  16 11 31.153   -21 32 27.13  .14533 1.1586 178.8 20.6 1.68 166
2020 05 27 03  16 11 21.401   -21 39 38.14  .14519 1.1584 178.7 20.6 1.71 166
2020 05 27 04  16 11 11.616   -21 46 49.90  .14506 1.1583 178.6 20.6 1.75 167
2020 05 27 05  16 11 01.797   -21 54 02.43  .14493 1.1582 178.5 20.7 1.79 167
2020 05 27 06  16 10 51.944   -22 01 15.70  .14479 1.1581 178.4 20.7 1.82 168
2020 05 27 07  16 10 42.057   -22 08 29.73  .14466 1.1579 178.3 20.7 1.86 168
2020 05 27 08  16 10 32.135   -22 15 44.49  .14453 1.1578 178.2 20.7 1.89 169
2020 05 27 09  16 10 22.180   -22 23 00.00  .14440 1.1577 178.0 20.7 1.93 169
2020 05 27 10  16 10 12.190   -22 30 16.25  .14427 1.1575 177.9 20.7 1.97 169
2020 05 27 11  16 10 02.165   -22 37 33.23  .14415 1.1574 177.8 20.7 2.01 170
2020 05 27 12  16 09 52.106   -22 44 50.94  .14402 1.1573 177.7 20.7 2.05 170
2020 05 27 13  16 09 42.011   -22 52 09.38  .14389 1.1571 177.5 20.7 2.09 171
2020 05 27 14  16 09 31.882   -22 59 28.54  .14377 1.1570 177.4 20.7 2.13 171
2020 05 27 15  16 09 21.718   -23 06 48.41  .14364 1.1569 177.3 20.7 2.17 171
2020 05 27 16  16 09 11.518   -23 14 09.00  .14352 1.1567 177.1 20.7 2.21 172
2020 05 27 17  16 09 01.283   -23 21 30.30  .14340 1.1566 177.0 20.7 2.26 172
2020 05 27 18  16 08 51.013   -23 28 52.30  .14328 1.1565 176.9 20.7 2.30 172
2020 05 27 19  16 08 40.707   -23 36 15.00  .14315 1.1563 176.7 20.7 2.34 173
2020 05 27 20  16 08 30.365   -23 43 38.40  .14303 1.1562 176.6 20.7 2.39 173
2020 05 27 21  16 08 19.987   -23 51 02.49  .14291 1.1561 176.5 20.8 2.43 173